When you browse on this site, cookies collect data to enhance your experience and personalize the content and advertising you see.
Visit our Privacy Policy to learn more. By continuing to use the site, you agree to this use of cookies and data.
  • In Romania
  • List of Countries
  • For 7 days
  • Water Temperature
  • Weather Map
  • Weather Widgets
  • user-avatar
    Login

    Hourly Weather Georgetown

    Today, 24 August, Saturday

    Time Temperature Precipitation Wind Pressure Humidity
    00:00 +29°C° 0 mm 5 mps 734 mmHg 74%
    01:00 +29°C° 0 mm 5 mps 734 mmHg 75%
    02:00 +29°C° 1.5 mm 5 mps 734 mmHg 76%
    03:00 +28°C° 1.5 mm 5 mps 734 mmHg 78%
    04:00 +28°C° 1.5 mm 6 mps 734 mmHg 79%
    05:00 +27°C° 1.7 mm 7 mps 734 mmHg 80%
    06:00 +27°C° 1.7 mm 8 mps 735 mmHg 81%
    07:00 +27°C° 1.7 mm 9 mps 735 mmHg 81%
    08:00 +27°C° 1.6 mm 9 mps 735 mmHg 83%
    09:00 +27°C° 1.6 mm 10 mps 736 mmHg 84%
    10:00 +27°C° 1.6 mm 10 mps 736 mmHg 85%
    11:00 +27°C° 0.2 mm 10 mps 736 mmHg 84%
    12:00 +27°C° 0.2 mm 10 mps 735 mmHg 82%
    13:00 +27°C° 0.2 mm 10 mps 735 mmHg 81%
    14:00 +28°C° 0.2 mm 9 mps 734 mmHg 79%
    15:00 +28°C° 0.2 mm 8 mps 734 mmHg 78%
    16:00 +28°C° 0.2 mm 7 mps 733 mmHg 77%
    17:00 +28°C° 0 mm 7 mps 733 mmHg 78%
    18:00 +28°C° 0 mm 7 mps 734 mmHg 80%
    19:00 +28°C° 0 mm 6 mps 734 mmHg 81%
    20:00 +27°C° 0 mm 6 mps 734 mmHg 82%
    21:00 +27°C° 0 mm 6 mps 735 mmHg 82%
    22:00 +27°C° 0 mm 6 mps 735 mmHg 82%
    23:00 +27°C° 0 mm 6 mps 735 mmHg 82%

    Tomorrow, 25 August, Sunday

    Time Temperature Precipitation Wind Pressure Humidity
    00:00 +27°C° 0 mm 6 mps 735 mmHg 83%
    01:00 +27°C° 0 mm 6 mps 735 mmHg 83%
    02:00 +27°C° 0 mm 6 mps 735 mmHg 83%
    03:00 +27°C° 0 mm 6 mps 735 mmHg 83%
    04:00 +26°C° 0 mm 6 mps 734 mmHg 84%
    05:00 +26°C° 0.1 mm 6 mps 735 mmHg 83%
    06:00 +27°C° 0.1 mm 6 mps 735 mmHg 83%
    07:00 +27°C° 0.1 mm 6 mps 736 mmHg 82%
    08:00 +27°C° 0 mm 6 mps 736 mmHg 80%
    09:00 +27°C° 0 mm 7 mps 736 mmHg 77%
    10:00 +28°C° 0 mm 7 mps 736 mmHg 74%
    11:00 +28°C° 0 mm 6 mps 736 mmHg 73%
    12:00 +29°C° 0 mm 5 mps 735 mmHg 72%
    13:00 +29°C° 0 mm 5 mps 734 mmHg 71%
    14:00 +29°C° 0 mm 4 mps 734 mmHg 70%
    15:00 +29°C° 0 mm 3 mps 733 mmHg 70%
    16:00 +29°C° 0 mm 2 mps 733 mmHg 69%
    17:00 +29°C° 0 mm 2 mps 733 mmHg 70%
    18:00 +29°C° 0 mm 3 mps 733 mmHg 72%
    19:00 +29°C° 0 mm 3 mps 733 mmHg 73%
    20:00 +29°C° 0.1 mm 4 mps 734 mmHg 75%
    21:00 +29°C° 0.1 mm 5 mps 734 mmHg 77%
    22:00 +28°C° 0.1 mm 6 mps 735 mmHg 78%
    23:00 +28°C° 0.7 mm 7 mps 735 mmHg 79%

    Day after tomorrow, 26 August, Monday

    Time Temperature Precipitation Wind Pressure Humidity
    00:00 +28°C° 0.7 mm 7 mps 735 mmHg 80%
    01:00 +28°C° 0.7 mm 8 mps 735 mmHg 81%
    02:00 +27°C° 0.1 mm 7 mps 735 mmHg 82%
    03:00 +27°C° 0.1 mm 7 mps 734 mmHg 82%
    04:00 +27°C° 0.1 mm 7 mps 734 mmHg 83%
    05:00 +27°C° 0.1 mm 7 mps 734 mmHg 82%
    06:00 +27°C° 0.1 mm 7 mps 735 mmHg 82%
    07:00 +27°C° 0.1 mm 7 mps 735 mmHg 81%
    08:00 +28°C° 0 mm 7 mps 735 mmHg 80%
    09:00 +28°C° 0 mm 6 mps 735 mmHg 78%
    10:00 +28°C° 0 mm 6 mps 736 mmHg 77%
    11:00 +28°C° 0.2 mm 5 mps 735 mmHg 75%
    12:00 +28°C° 0.2 mm 4 mps 735 mmHg 74%
    13:00 +29°C° 0.2 mm 3 mps 734 mmHg 72%
    14:00 +29°C° 0.3 mm 3 mps 734 mmHg 71%
    15:00 +29°C° 0.3 mm 3 mps 733 mmHg 70%
    16:00 +29°C° 0.3 mm 2 mps 733 mmHg 69%
    17:00 +29°C° 0.1 mm 2 mps 733 mmHg 71%
    18:00 +29°C° 0.1 mm 2 mps 733 mmHg 72%
    19:00 +29°C° 0.1 mm 2 mps 734 mmHg 73%
    20:00 +28°C° 0.2 mm 3 mps 734 mmHg 76%
    21:00 +28°C° 0.2 mm 5 mps 734 mmHg 78%
    22:00 +28°C° 0.2 mm 6 mps 735 mmHg 80%
    23:00 +28°C° 0.6 mm 6 mps 735 mmHg 81%

    27 August, Tuesday

    Time Temperature Precipitation Wind Pressure Humidity
    00:00 +27°C° 0.6 mm 5 mps 735 mmHg 82%
    01:00 +27°C° 0.6 mm 5 mps 735 mmHg 82%
    02:00 +27°C° 1.1 mm 5 mps 734 mmHg 82%
    03:00 +27°C° 1.1 mm 5 mps 734 mmHg 81%
    04:00 +27°C° 1.1 mm 5 mps 734 mmHg 80%
    05:00 +27°C° 0.1 mm 5 mps 735 mmHg 81%
    06:00 +27°C° 0.1 mm 5 mps 735 mmHg 82%
    07:00 +27°C° 0.1 mm 5 mps 735 mmHg 83%
    08:00 +27°C° 0.5 mm 5 mps 736 mmHg 82%
    09:00 +28°C° 0.5 mm 5 mps 736 mmHg 81%
    10:00 +28°C° 0.5 mm 5 mps 736 mmHg 81%
    11:00 +28°C° 0.5 mm 5 mps 736 mmHg 78%
    12:00 +28°C° 0.5 mm 4 mps 735 mmHg 76%
    13:00 +29°C° 0.5 mm 4 mps 734 mmHg 73%
    14:00 +29°C° 0.1 mm 4 mps 734 mmHg 71%
    15:00 +29°C° 0.1 mm 3 mps 734 mmHg 69%
    16:00 +29°C° 0.1 mm 3 mps 733 mmHg 68%
    17:00 +29°C° 0 mm 2 mps 733 mmHg 69%
    18:00 +29°C° 0 mm 2 mps 734 mmHg 71%
    19:00 +29°C° 0 mm 1 mps 734 mmHg 73%
    20:00 +29°C° 0 mm 1 mps 734 mmHg 72%
    21:00 +29°C° 0 mm 1 mps 735 mmHg 72%
    22:00 +29°C° 0 mm 1 mps 735 mmHg 72%
    23:00 +29°C° 0 mm 2 mps 735 mmHg 72%

    28 August, Wednesday

    Time Temperature Precipitation Wind Pressure Humidity
    00:00 +29°C° 0 mm 3 mps 735 mmHg 72%
    01:00 +28°C° 0 mm 3 mps 734 mmHg 72%
    02:00 +28°C° 0 mm 3 mps 734 mmHg 75%
    03:00 +28°C° 0 mm 4 mps 734 mmHg 78%
    04:00 +28°C° 0 mm 4 mps 734 mmHg 82%
    05:00 +28°C° 0.4 mm 4 mps 735 mmHg 82%
    06:00 +28°C° 0.4 mm 4 mps 735 mmHg 81%
    07:00 +28°C° 0.4 mm 4 mps 736 mmHg 81%
    08:00 +29°C° 0.2 mm 4 mps 736 mmHg 78%
    09:00 +29°C° 0.2 mm 5 mps 736 mmHg 75%
    10:00 +29°C° 0.2 mm 5 mps 736 mmHg 72%
    11:00 +30°C° 0.2 mm 5 mps 736 mmHg 72%
    12:00 +30°C° 0.2 mm 5 mps 735 mmHg 71%
    13:00 +30°C° 0.2 mm 4 mps 734 mmHg 71%
    14:00 +30°C° 0 mm 4 mps 734 mmHg 70%
    15:00 +30°C° 0 mm 3 mps 734 mmHg 69%
    16:00 +30°C° 0 mm 3 mps 733 mmHg 68%
    17:00 +30°C° 0.1 mm 2 mps 733 mmHg 69%
    18:00 +30°C° 0.1 mm 2 mps 734 mmHg 70%
    19:00 +30°C° 0.1 mm 1 mps 734 mmHg 71%
    20:00 +29°C° 0.3 mm 2 mps 734 mmHg 72%
    21:00 +29°C° 0.3 mm 3 mps 735 mmHg 74%
    22:00 +28°C° 0.3 mm 3 mps 735 mmHg 75%
    23:00 +28°C° 0.1 mm 4 mps 735 mmHg 77%

    29 August, Thursday

    Time Temperature Precipitation Wind Pressure Humidity
    00:00 +28°C° 0.1 mm 5 mps 735 mmHg 78%
    01:00 +28°C° 0.1 mm 6 mps 735 mmHg 80%
    02:00 +28°C° 0 mm 6 mps 735 mmHg 80%
    03:00 +28°C° 0 mm 7 mps 734 mmHg 80%
    04:00 +28°C° 0 mm 7 mps 734 mmHg 80%
    05:00 +28°C° 0 mm 6 mps 735 mmHg 80%
    06:00 +28°C° 0 mm 6 mps 735 mmHg 80%
    07:00 +28°C° 0 mm 6 mps 735 mmHg 81%
    08:00 +28°C° 2 mm 7 mps 736 mmHg 79%
    09:00 +29°C° 2 mm 8 mps 736 mmHg 76%
    10:00 +29°C° 2 mm 9 mps 736 mmHg 74%
    11:00 +29°C° 0.2 mm 8 mps 736 mmHg 75%
    12:00 +29°C° 0.2 mm 7 mps 735 mmHg 75%
    13:00 +29°C° 0.2 mm 7 mps 735 mmHg 76%
    14:00 +29°C° 0 mm 6 mps 734 mmHg 74%
    15:00 +30°C° 0 mm 6 mps 734 mmHg 73%
    16:00 +30°C° 0 mm 5 mps 733 mmHg 71%
    17:00 +30°C° 0 mm 4 mps 733 mmHg 73%
    18:00 +29°C° 0 mm 4 mps 733 mmHg 75%
    19:00 +29°C° 0 mm 4 mps 733 mmHg 76%
    20:00 +29°C° 0 mm 4 mps 733 mmHg 77%
    21:00 +29°C° 0 mm 5 mps 734 mmHg 78%
    22:00 +28°C° 0 mm 6 mps 734 mmHg 79%
    23:00 +28°C° 0.1 mm 7 mps 734 mmHg 79%
    Show more